Time,TemperatureF,DewpointF,PressureIn,WindDirection,WindDirectionDegrees,WindSpeedMPH,WindSpeedGustMPH,Humidity,HourlyPrecipIn,Conditions,Clouds,dailyrainin,SoftwareType,DateUTC
2013-10-08 00:00:00,74.5,73.6,29.81,North,360,4.0,10.0,97,0.00,,---,0.77,VWS V14.01,2013-10-08 04:00:00,
2013-10-08 00:01:00,74.5,73.6,29.81,North,360,2.0,3.0,97,0.00,,---,0.00,VWS V14.01,2013-10-08 04:01:00,
2013-10-08 00:06:00,74.5,73.6,29.80,North,360,2.0,6.0,97,0.00,,---,0.00,VWS V14.01,2013-10-08 04:06:00,
2013-10-08 00:10:00,74.5,73.6,29.80,North,360,3.0,6.0,97,0.00,,---,0.00,VWS V14.01,2013-10-08 04:10:00,
2013-10-08 00:11:00,74.5,73.6,29.80,North,360,7.0,8.0,97,0.00,,---,0.00,VWS V14.01,2013-10-08 04:11:00,
2013-10-08 00:16:00,74.6,73.7,29.80,North,360,3.0,8.0,97,0.00,,---,0.00,VWS V14.01,2013-10-08 04:16:00,
2013-10-08 00:20:00,74.6,73.7,29.80,North,360,7.0,8.0,97,0.00,,---,0.00,VWS V14.01,2013-10-08 04:20:00,
2013-10-08 00:21:00,74.6,73.7,29.80,North,360,5.0,9.0,97,0.00,,---,0.00,VWS V14.01,2013-10-08 04:21:00,
2013-10-08 00:26:00,74.6,73.7,29.80,North,360,4.0,10.0,97,0.00,,---,0.00,VWS V14.01,2013-10-08 04:26:00,
2013-10-08 00:30:00,74.7,73.8,29.80,North,360,2.0,10.0,97,0.00,,---,0.00,VWS V14.01,2013-10-08 04:30:00,
2013-10-08 00:31:00,74.7,73.8,29.80,North,360,6.0,9.0,97,0.00,,---,0.00,VWS V14.01,2013-10-08 04:31:00,
2013-10-08 00:36:00,74.7,73.8,29.80,North,360,6.0,11.0,97,0.00,,---,0.00,VWS V14.01,2013-10-08 04:36:00,
2013-10-08 00:40:00,74.8,73.9,29.79,North,360,2.0,11.0,97,0.00,,---,0.00,VWS V14.01,2013-10-08 04:40:00,
2013-10-08 00:41:00,74.8,73.9,29.79,North,360,2.0,3.0,97,0.00,,---,0.00,VWS V14.01,2013-10-08 04:41:00,
2013-10-08 00:46:00,74.8,73.9,29.80,North,360,4.0,8.0,97,0.00,,---,0.00,VWS V14.01,2013-10-08 04:46:00,
2013-10-08 00:50:00,74.8,73.9,29.79,North,360,4.0,8.0,97,0.00,,---,0.00,VWS V14.01,2013-10-08 04:50:00,
2013-10-08 00:51:00,74.8,73.9,29.79,North,360,1.0,5.0,97,0.00,,---,0.00,VWS V14.01,2013-10-08 04:51:00,
2013-10-08 00:56:00,74.8,73.9,29.79,North,360,0.0,6.0,97,0.00,,---,0.00,VWS V14.01,2013-10-08 04:56:00,
2013-10-08 01:00:00,74.8,73.9,29.79,North,360,3.0,6.0,97,0.00,,---,0.00,VWS V14.01,2013-10-08 05:00:00,
2013-10-08 01:01:00,74.7,73.8,29.79,North,360,2.0,4.0,97,0.00,,---,0.00,VWS V14.01,2013-10-08 05:01:00,
2013-10-08 01:06:00,74.7,73.8,29.79,North,360,4.0,7.0,97,0.00,,---,0.00,VWS V14.01,2013-10-08 05:06:00,
2013-10-08 01:10:00,74.7,73.8,29.78,North,360,5.0,7.0,97,0.00,,---,0.00,VWS V14.01,2013-10-08 05:10:00,
2013-10-08 01:11:00,74.7,73.8,29.78,North,360,3.0,5.0,97,0.00,,---,0.00,VWS V14.01,2013-10-08 05:11:00,
2013-10-08 01:16:00,74.7,73.8,29.78,North,360,4.0,7.0,97,0.00,,---,0.00,VWS V14.01,2013-10-08 05:16:00,
2013-10-08 01:20:00,74.7,73.8,29.78,North,360,1.0,7.0,97,0.00,,---,0.00,VWS V14.01,2013-10-08 05:20:00,
2013-10-08 01:21:00,74.7,73.8,29.78,North,360,5.0,5.0,97,0.00,,---,0.00,VWS V14.01,2013-10-08 05:21:00,
2013-10-08 01:26:00,74.7,73.8,29.78,North,360,2.0,5.0,97,0.00,,---,0.00,VWS V14.01,2013-10-08 05:26:00,
2013-10-08 01:30:00,74.7,73.8,29.78,North,360,0.0,8.0,97,0.00,,---,0.00,VWS V14.01,2013-10-08 05:30:00,
2013-10-08 01:31:00,74.7,73.8,29.78,North,360,2.0,5.0,97,0.00,,---,0.00,VWS V14.01,2013-10-08 05:31:00,
2013-10-08 01:36:00,74.8,73.9,29.78,North,360,4.0,6.0,97,0.00,,---,0.00,VWS V14.01,2013-10-08 05:36:00,
2013-10-08 01:40:00,74.8,73.9,29.78,North,360,4.0,7.0,97,0.00,,---,0.00,VWS V14.01,2013-10-08 05:40:00,
2013-10-08 01:41:00,74.8,73.9,29.78,North,360,6.0,6.0,97,0.00,,---,0.00,VWS V14.01,2013-10-08 05:41:00,
2013-10-08 01:46:00,74.8,73.9,29.78,North,360,5.0,8.0,97,0.00,,---,0.00,VWS V14.01,2013-10-08 05:46:00,
2013-10-08 01:50:00,74.9,74.0,29.78,North,360,2.0,8.0,97,0.00,,---,0.00,VWS V14.01,2013-10-08 05:50:00,
2013-10-08 01:51:00,74.9,74.0,29.78,North,360,3.0,4.0,97,0.00,,---,0.00,VWS V14.01,2013-10-08 05:51:00,
2013-10-08 01:56:00,74.9,74.0,29.78,North,360,0.0,5.0,97,0.00,,---,0.00,VWS V14.01,2013-10-08 05:56:00,
2013-10-08 02:00:00,74.8,73.9,29.78,North,360,0.0,5.0,97,0.00,,---,0.00,VWS V14.01,2013-10-08 06:00:00,
2013-10-08 02:01:00,74.8,73.9,29.78,North,360,0.0,0.0,97,0.00,,---,0.00,VWS V14.01,2013-10-08 06:01:00,
2013-10-08 02:06:00,74.7,73.8,29.78,North,360,2.0,4.0,97,0.00,,---,0.00,VWS V14.01,2013-10-08 06:06:00,
2013-10-08 02:10:00,74.6,73.7,29.78,North,360,4.0,4.0,97,0.00,,---,0.00,VWS V14.01,2013-10-08 06:10:00,
2013-10-08 02:11:00,74.6,73.7,29.78,North,360,1.0,4.0,97,0.00,,---,0.00,VWS V14.01,2013-10-08 06:11:00,
2013-10-08 02:16:00,74.5,73.6,29.78,North,360,1.0,4.0,97,0.00,,---,0.00,VWS V14.01,2013-10-08 06:16:00,
2013-10-08 02:20:00,74.4,73.5,29.78,North,360,0.0,4.0,97,0.00,,---,0.00,VWS V14.01,2013-10-08 06:20:00,
2013-10-08 02:21:00,74.4,73.5,29.78,North,360,0.0,0.0,97,0.00,,---,0.00,VWS V14.01,2013-10-08 06:21:00,
2013-10-08 02:26:00,74.3,73.4,29.78,North,360,1.0,2.0,97,0.00,,---,0.00,VWS V14.01,2013-10-08 06:26:00,
2013-10-08 02:30:00,74.3,73.4,29.78,North,360,0.0,3.0,97,0.00,,---,0.00,VWS V14.01,2013-10-08 06:30:00,
2013-10-08 02:31:00,74.3,73.4,29.78,North,360,0.0,0.0,97,0.00,,---,0.00,VWS V14.01,2013-10-08 06:31:00,
2013-10-08 02:36:00,74.4,73.5,29.78,North,360,0.0,0.0,97,0.00,,---,0.00,VWS V14.01,2013-10-08 06:36:00,
2013-10-08 02:40:00,74.4,73.5,29.78,North,360,0.0,0.0,97,0.00,,---,0.00,VWS V14.01,2013-10-08 06:40:00,
2013-10-08 02:41:00,74.4,73.5,29.78,North,360,0.0,0.0,97,0.00,,---,0.00,VWS V14.01,2013-10-08 06:41:00,
2013-10-08 02:46:00,74.5,73.6,29.78,North,360,0.0,3.0,97,0.00,,---,0.00,VWS V14.01,2013-10-08 06:46:00,
2013-10-08 02:50:00,74.6,73.7,29.78,North,360,0.0,3.0,97,0.00,,---,0.00,VWS V14.01,2013-10-08 06:50:00,
2013-10-08 02:51:00,74.6,73.7,29.78,North,360,0.0,0.0,97,0.00,,---,0.00,VWS V14.01,2013-10-08 06:51:00,
2013-10-08 02:56:00,74.5,73.6,29.78,North,360,0.0,0.0,97,0.00,,---,0.00,VWS V14.01,2013-10-08 06:56:00,
2013-10-08 03:00:00,74.4,73.5,29.78,North,360,0.0,2.0,97,0.00,,---,0.00,VWS V14.01,2013-10-08 07:00:00,
2013-10-08 03:01:00,74.4,73.5,29.78,North,360,0.0,0.0,97,0.00,,---,0.00,VWS V14.01,2013-10-08 07:01:00,
2013-10-08 03:06:00,74.3,73.4,29.78,North,360,0.0,0.0,97,0.00,,---,0.00,VWS V14.01,2013-10-08 07:06:00,
2013-10-08 03:10:00,74.3,73.4,29.78,North,360,0.0,0.0,97,0.00,,---,0.00,VWS V14.01,2013-10-08 07:10:00,
2013-10-08 03:11:00,74.3,73.4,29.79,North,360,0.0,0.0,97,0.00,,---,0.00,VWS V14.01,2013-10-08 07:11:00,
2013-10-08 03:16:00,74.2,73.3,29.79,North,360,0.0,0.0,97,0.00,,---,0.00,VWS V14.01,2013-10-08 07:16:00,
2013-10-08 03:20:00,74.2,73.3,29.79,North,360,0.0,0.0,97,0.00,,---,0.00,VWS V14.01,2013-10-08 07:20:00,
2013-10-08 03:21:00,74.2,73.3,29.79,North,360,0.0,0.0,97,0.00,,---,0.00,VWS V14.01,2013-10-08 07:21:00,
2013-10-08 03:26:00,74.1,73.2,29.79,North,360,0.0,0.0,97,0.00,,---,0.00,VWS V14.01,2013-10-08 07:26:00,
2013-10-08 03:30:00,74.0,73.1,29.79,North,360,0.0,0.0,97,0.00,,---,0.00,VWS V14.01,2013-10-08 07:30:00,
2013-10-08 03:31:00,74.0,73.1,29.79,North,360,0.0,0.0,97,0.00,,---,0.00,VWS V14.01,2013-10-08 07:31:00,
2013-10-08 03:36:00,73.9,73.0,29.79,North,360,0.0,0.0,97,0.00,,---,0.00,VWS V14.01,2013-10-08 07:36:00,
2013-10-08 03:40:00,73.8,72.9,29.79,North,360,0.0,0.0,97,0.00,,---,0.00,VWS V14.01,2013-10-08 07:40:00,
2013-10-08 03:41:00,73.8,72.9,29.79,North,360,0.0,0.0,97,0.00,,---,0.00,VWS V14.01,2013-10-08 07:41:00,
2013-10-08 03:46:00,73.7,72.8,29.79,North,360,0.0,0.0,97,0.00,,---,0.00,VWS V14.01,2013-10-08 07:46:00,
2013-10-08 03:50:00,73.6,72.7,29.79,North,360,0.0,0.0,97,0.00,,---,0.00,VWS V14.01,2013-10-08 07:50:00,
2013-10-08 03:51:00,73.6,72.7,29.79,North,360,0.0,0.0,97,0.00,,---,0.00,VWS V14.01,2013-10-08 07:51:00,
2013-10-08 03:56:00,73.7,72.8,29.80,North,360,0.0,0.0,97,0.00,,---,0.00,VWS V14.01,2013-10-08 07:56:00,
2013-10-08 04:00:00,73.7,72.8,29.79,North,360,0.0,0.0,97,0.00,,---,0.00,VWS V14.01,2013-10-08 08:00:00,
2013-10-08 04:01:00,73.7,72.8,29.79,North,360,0.0,0.0,97,0.00,,---,0.00,VWS V14.01,2013-10-08 08:01:00,
2013-10-08 04:06:00,73.6,72.7,29.79,North,360,0.0,0.0,97,0.00,,---,0.00,VWS V14.01,2013-10-08 08:06:00,
2013-10-08 04:10:00,73.5,72.6,29.80,North,360,0.0,0.0,97,0.00,,---,0.00,VWS V14.01,2013-10-08 08:10:00,
2013-10-08 04:11:00,73.5,72.6,29.80,North,360,0.0,0.0,97,0.00,,---,0.00,VWS V14.01,2013-10-08 08:11:00,
2013-10-08 04:16:00,73.4,72.5,29.80,North,360,0.0,0.0,97,0.00,,---,0.00,VWS V14.01,2013-10-08 08:16:00,
2013-10-08 04:20:00,73.6,72.7,29.80,North,360,0.0,0.0,97,0.00,,---,0.00,VWS V14.01,2013-10-08 08:20:00,
2013-10-08 04:21:00,73.6,72.7,29.80,North,360,0.0,0.0,97,0.00,,---,0.00,VWS V14.01,2013-10-08 08:21:00,
2013-10-08 04:26:00,73.7,72.8,29.80,North,360,0.0,0.0,97,0.00,,---,0.00,VWS V14.01,2013-10-08 08:26:00,
2013-10-08 04:30:00,73.8,72.9,29.80,North,360,0.0,0.0,97,0.00,,---,0.00,VWS V14.01,2013-10-08 08:30:00,
2013-10-08 04:31:00,73.8,72.9,29.80,North,360,0.0,0.0,97,0.00,,---,0.00,VWS V14.01,2013-10-08 08:31:00,
2013-10-08 04:36:00,73.8,72.9,29.80,North,360,0.0,0.0,97,0.00,,---,0.00,VWS V14.01,2013-10-08 08:36:00,
2013-10-08 04:40:00,73.7,72.8,29.80,North,360,0.0,0.0,97,0.00,,---,0.00,VWS V14.01,2013-10-08 08:40:00,
2013-10-08 04:41:00,73.7,72.8,29.80,North,360,0.0,0.0,97,0.00,,---,0.00,VWS V14.01,2013-10-08 08:41:00,
2013-10-08 04:46:00,73.5,72.6,29.80,North,360,0.0,0.0,97,0.00,,---,0.00,VWS V14.01,2013-10-08 08:46:00,
2013-10-08 04:50:00,73.3,72.4,29.80,North,360,0.0,0.0,97,0.00,,---,0.00,VWS V14.01,2013-10-08 08:50:00,
2013-10-08 04:51:00,73.3,72.4,29.80,North,360,0.0,0.0,97,0.00,,---,0.00,VWS V14.01,2013-10-08 08:51:00,
2013-10-08 04:56:00,73.1,72.2,29.80,North,360,0.0,0.0,97,0.00,,---,0.00,VWS V14.01,2013-10-08 08:56:00,
2013-10-08 05:00:00,73.0,72.1,29.80,North,360,0.0,0.0,97,0.00,,---,0.00,VWS V14.01,2013-10-08 09:00:00,
2013-10-08 05:01:00,73.0,72.1,29.80,North,360,0.0,0.0,97,0.00,,---,0.00,VWS V14.01,2013-10-08 09:01:00,
2013-10-08 05:06:00,72.9,72.0,29.80,North,360,0.0,0.0,97,0.00,,---,0.00,VWS V14.01,2013-10-08 09:06:00,
2013-10-08 05:10:00,72.8,71.9,29.80,North,360,0.0,0.0,97,0.00,,---,0.00,VWS V14.01,2013-10-08 09:10:00,
2013-10-08 05:11:00,72.8,71.9,29.80,North,360,0.0,0.0,97,0.00,,---,0.00,VWS V14.01,2013-10-08 09:11:00,
2013-10-08 05:16:00,72.6,71.7,29.80,North,360,0.0,0.0,97,0.00,,---,0.00,VWS V14.01,2013-10-08 09:16:00,
2013-10-08 05:20:00,72.6,71.7,29.80,North,360,0.0,0.0,97,0.00,,---,0.00,VWS V14.01,2013-10-08 09:20:00,
2013-10-08 05:21:00,72.6,71.7,29.80,North,360,0.0,0.0,97,0.00,,---,0.00,VWS V14.01,2013-10-08 09:21:00,
2013-10-08 05:26:00,72.5,71.6,29.80,North,360,0.0,0.0,97,0.00,,---,0.00,VWS V14.01,2013-10-08 09:26:00,
2013-10-08 05:30:00,72.5,71.6,29.80,North,360,0.0,0.0,97,0.00,,---,0.00,VWS V14.01,2013-10-08 09:30:00,
2013-10-08 05:31:00,72.5,71.6,29.80,North,360,0.0,0.0,97,0.00,,---,0.00,VWS V14.01,2013-10-08 09:31:00,
2013-10-08 05:36:00,72.6,71.7,29.80,North,360,0.0,0.0,97,0.00,,---,0.00,VWS V14.01,2013-10-08 09:36:00,
2013-10-08 05:40:00,72.6,71.7,29.80,North,360,0.0,0.0,97,0.00,,---,0.00,VWS V14.01,2013-10-08 09:40:00,
2013-10-08 05:41:00,72.6,71.7,29.80,North,360,0.0,0.0,97,0.00,,---,0.00,VWS V14.01,2013-10-08 09:41:00,
2013-10-08 05:46:00,72.7,71.8,29.81,North,360,0.0,0.0,97,0.00,,---,0.00,VWS V14.01,2013-10-08 09:46:00,
2013-10-08 05:50:00,72.8,71.9,29.81,North,360,0.0,0.0,97,0.00,,---,0.00,VWS V14.01,2013-10-08 09:50:00,
2013-10-08 05:51:00,72.9,72.0,29.81,North,360,0.0,0.0,97,0.00,,---,0.00,VWS V14.01,2013-10-08 09:51:00,
2013-10-08 05:56:00,73.0,72.1,29.81,North,360,1.0,3.0,97,0.00,,---,0.00,VWS V14.01,2013-10-08 09:56:00,
2013-10-08 06:00:00,73.2,72.3,29.81,North,360,0.0,3.0,97,0.00,,---,0.00,VWS V14.01,2013-10-08 10:00:00,
2013-10-08 06:01:00,73.3,72.4,29.81,North,360,0.0,0.0,97,0.00,,---,0.00,VWS V14.01,2013-10-08 10:01:00,
2013-10-08 06:06:00,73.5,72.6,29.81,North,360,0.0,0.0,97,0.00,,---,0.00,VWS V14.01,2013-10-08 10:06:00,
2013-10-08 06:10:00,73.5,72.6,29.81,North,360,0.0,0.0,97,0.00,,---,0.00,VWS V14.01,2013-10-08 10:10:00,
2013-10-08 06:11:00,73.5,72.6,29.81,North,360,0.0,0.0,97,0.00,,---,0.00,VWS V14.01,2013-10-08 10:11:00,
2013-10-08 06:16:00,73.5,72.6,29.81,North,360,0.0,0.0,97,0.00,,---,0.00,VWS V14.01,2013-10-08 10:16:00,
2013-10-08 06:20:00,73.5,72.6,29.81,North,360,2.0,3.0,97,0.00,,---,0.00,VWS V14.01,2013-10-08 10:20:00,
2013-10-08 06:21:00,73.5,72.6,29.81,North,360,3.0,5.0,97,0.00,,---,0.00,VWS V14.01,2013-10-08 10:21:00,
2013-10-08 06:26:00,74.0,73.4,29.81,North,360,2.0,7.0,98,0.00,,---,0.00,VWS V14.01,2013-10-08 10:26:00,
2013-10-08 06:30:00,74.2,73.3,29.82,North,360,0.0,7.0,97,0.00,,---,0.00,VWS V14.01,2013-10-08 10:30:00,
2013-10-08 06:31:00,74.2,73.3,29.82,North,360,1.0,1.0,97,0.00,,---,0.00,VWS V14.01,2013-10-08 10:31:00,
2013-10-08 06:36:00,74.2,73.3,29.82,North,360,2.0,5.0,97,0.00,,---,0.00,VWS V14.01,2013-10-08 10:36:00,
2013-10-08 06:40:00,74.2,73.3,29.82,North,360,1.0,5.0,97,0.00,,---,0.00,VWS V14.01,2013-10-08 10:40:00,
2013-10-08 06:41:00,74.2,73.3,29.82,North,360,1.0,2.0,97,0.00,,---,0.00,VWS V14.01,2013-10-08 10:41:00,
2013-10-08 06:46:00,74.2,73.3,29.82,North,360,2.0,2.0,97,0.00,,---,0.00,VWS V14.01,2013-10-08 10:46:00,
2013-10-08 06:50:00,74.2,73.3,29.82,North,360,0.0,2.0,97,0.00,,---,0.00,VWS V14.01,2013-10-08 10:50:00,
2013-10-08 06:51:00,74.2,73.3,29.82,North,360,0.0,0.0,97,0.00,,---,0.00,VWS V14.01,2013-10-08 10:51:00,
2013-10-08 06:56:00,74.2,73.3,29.82,North,360,0.0,3.0,97,0.00,,---,0.00,VWS V14.01,2013-10-08 10:56:00,
2013-10-08 07:00:00,74.1,73.2,29.82,North,360,0.0,3.0,97,0.00,,---,0.00,VWS V14.01,2013-10-08 11:00:00,
2013-10-08 07:01:00,74.1,73.2,29.82,North,360,0.0,0.0,97,0.00,,---,0.00,VWS V14.01,2013-10-08 11:01:00,
2013-10-08 07:06:00,74.1,73.2,29.82,North,360,1.0,2.0,97,0.00,,---,0.00,VWS V14.01,2013-10-08 11:06:00,
2013-10-08 07:10:00,74.0,73.1,29.82,North,360,0.0,2.0,97,0.00,,---,0.00,VWS V14.01,2013-10-08 11:10:00,
2013-10-08 07:11:00,74.0,73.1,29.82,North,360,0.0,0.0,97,0.00,,---,0.00,VWS V14.01,2013-10-08 11:11:00,
2013-10-08 07:16:00,73.9,73.0,29.82,North,360,0.0,0.0,97,0.00,,---,0.00,VWS V14.01,2013-10-08 11:16:00,
2013-10-08 07:20:00,73.8,72.9,29.82,North,360,0.0,0.0,97,0.00,,---,0.00,VWS V14.01,2013-10-08 11:20:00,
2013-10-08 07:21:00,73.8,72.9,29.82,North,360,0.0,0.0,97,0.00,,---,0.00,VWS V14.01,2013-10-08 11:21:00,
2013-10-08 07:26:00,73.6,72.7,29.82,North,360,0.0,0.0,97,0.00,,---,0.00,VWS V14.01,2013-10-08 11:26:00,
2013-10-08 07:30:00,73.5,72.6,29.83,North,360,0.0,0.0,97,0.00,,---,0.00,VWS V14.01,2013-10-08 11:30:00,
2013-10-08 07:31:00,73.5,72.6,29.83,North,360,0.0,0.0,97,0.00,,---,0.00,VWS V14.01,2013-10-08 11:31:00,
2013-10-08 07:36:00,73.4,72.5,29.83,North,360,0.0,0.0,97,0.00,,---,0.00,VWS V14.01,2013-10-08 11:36:00,
2013-10-08 07:40:00,73.4,72.5,29.83,North,360,0.0,0.0,97,0.00,,---,0.00,VWS V14.01,2013-10-08 11:40:00,
2013-10-08 07:41:00,73.4,72.5,29.83,North,360,0.0,0.0,97,0.00,,---,0.00,VWS V14.01,2013-10-08 11:41:00,
2013-10-08 07:46:00,73.6,72.7,29.83,North,360,0.0,0.0,97,0.00,,---,0.00,VWS V14.01,2013-10-08 11:46:00,
2013-10-08 07:50:00,73.7,73.1,29.84,North,360,0.0,0.0,98,0.00,,---,0.00,VWS V14.01,2013-10-08 11:50:00,
2013-10-08 07:51:00,73.7,72.8,29.84,North,360,0.0,0.0,97,0.00,,---,0.00,VWS V14.01,2013-10-08 11:51:00,
2013-10-08 07:56:00,73.7,72.8,29.84,North,360,0.0,0.0,97,0.00,,---,0.00,VWS V14.01,2013-10-08 11:56:00,
2013-10-08 08:00:00,73.7,73.1,29.84,North,360,0.0,0.0,98,0.00,,---,0.00,VWS V14.01,2013-10-08 12:00:00,
2013-10-08 08:01:00,73.7,73.1,29.84,North,360,0.0,0.0,98,0.00,,---,0.00,VWS V14.01,2013-10-08 12:01:00,
2013-10-08 08:06:00,73.9,73.3,29.84,North,360,0.0,0.0,98,0.00,,---,0.00,VWS V14.01,2013-10-08 12:06:00,
2013-10-08 08:10:00,74.6,74.0,29.84,North,360,0.0,0.0,98,0.00,,---,0.00,VWS V14.01,2013-10-08 12:10:00,
2013-10-08 08:11:00,74.7,74.1,29.84,North,360,0.0,0.0,98,0.00,,---,0.00,VWS V14.01,2013-10-08 12:11:00,
2013-10-08 08:16:00,75.7,75.1,29.85,North,360,0.0,1.0,98,0.00,,---,0.00,VWS V14.01,2013-10-08 12:16:00,
2013-10-08 08:20:00,75.5,74.9,29.85,North,360,0.0,1.0,98,0.00,,---,0.00,VWS V14.01,2013-10-08 12:20:00,
2013-10-08 08:21:00,75.5,74.9,29.85,North,360,0.0,0.0,98,0.00,,---,0.00,VWS V14.01,2013-10-08 12:21:00,
2013-10-08 08:26:00,75.4,74.8,29.85,North,360,0.0,0.0,98,0.00,,---,0.00,VWS V14.01,2013-10-08 12:26:00,
2013-10-08 08:30:00,75.5,74.9,29.85,North,360,0.0,0.0,98,0.00,,---,0.00,VWS V14.01,2013-10-08 12:30:00,
2013-10-08 08:31:00,75.6,75.0,29.85,North,360,0.0,0.0,98,0.00,,---,0.00,VWS V14.01,2013-10-08 12:31:00,
2013-10-08 08:36:00,76.1,75.5,29.85,North,360,0.0,1.0,98,0.00,,---,0.00,VWS V14.01,2013-10-08 12:36:00,
2013-10-08 08:40:00,76.2,75.6,29.85,North,360,0.0,1.0,98,0.00,,---,0.00,VWS V14.01,2013-10-08 12:40:00,
2013-10-08 08:41:00,76.2,75.6,29.85,North,360,0.0,0.0,98,0.00,,---,0.00,VWS V14.01,2013-10-08 12:41:00,
2013-10-08 08:46:00,76.7,76.1,29.85,North,360,0.0,1.0,98,0.00,,---,0.00,VWS V14.01,2013-10-08 12:46:00,
2013-10-08 08:50:00,76.9,76.3,29.85,North,360,0.0,1.0,98,0.00,,---,0.00,VWS V14.01,2013-10-08 12:50:00,
2013-10-08 08:51:00,76.9,76.3,29.85,North,360,0.0,0.0,98,0.00,,---,0.00,VWS V14.01,2013-10-08 12:51:00,
2013-10-08 08:56:00,76.7,76.1,29.85,North,360,5.0,5.0,98,0.00,,---,0.00,VWS V14.01,2013-10-08 12:56:00,
2013-10-08 09:00:00,76.4,75.8,29.85,North,360,0.0,5.0,98,0.00,,---,0.00,VWS V14.01,2013-10-08 13:00:00,
2013-10-08 09:01:00,76.5,75.6,29.86,North,360,0.0,0.0,97,0.00,,---,0.00,VWS V14.01,2013-10-08 13:01:00,
2013-10-08 09:06:00,76.7,75.8,29.86,North,360,2.0,3.0,97,0.00,,---,0.00,VWS V14.01,2013-10-08 13:06:00,
2013-10-08 09:10:00,76.9,76.0,29.86,North,360,0.0,4.0,97,0.00,,---,0.00,VWS V14.01,2013-10-08 13:10:00,
2013-10-08 09:11:00,76.9,76.0,29.86,North,360,3.0,3.0,97,0.00,,---,0.00,VWS V14.01,2013-10-08 13:11:00,
2013-10-08 09:16:00,77.5,76.6,29.86,North,360,0.0,4.0,97,0.00,,---,0.00,VWS V14.01,2013-10-08 13:16:00,
2013-10-08 09:20:00,78.0,77.1,29.86,North,360,3.0,6.0,97,0.00,,---,0.00,VWS V14.01,2013-10-08 13:20:00,
2013-10-08 09:21:00,77.9,77.0,29.86,North,360,4.0,4.0,97,0.00,,---,0.00,VWS V14.01,2013-10-08 13:21:00,
2013-10-08 09:26:00,78.0,77.1,29.86,North,360,1.0,8.0,97,0.00,,---,0.00,VWS V14.01,2013-10-08 13:26:00,
2013-10-08 09:30:00,78.3,77.4,29.86,North,360,3.0,8.0,97,0.00,,---,0.00,VWS V14.01,2013-10-08 13:30:00,
2013-10-08 09:31:00,78.3,77.4,29.86,North,360,2.0,3.0,97,0.00,,---,0.00,VWS V14.01,2013-10-08 13:31:00,
2013-10-08 09:36:00,78.8,77.6,29.86,North,360,2.0,9.0,96,0.00,,---,0.00,VWS V14.01,2013-10-08 13:36:00,
2013-10-08 09:40:00,79.0,77.4,29.86,North,360,6.0,10.0,95,0.00,,---,0.00,VWS V14.01,2013-10-08 13:40:00,
2013-10-08 09:41:00,79.0,77.4,29.86,North,360,6.0,7.0,95,0.00,,---,0.00,VWS V14.01,2013-10-08 13:41:00,
2013-10-08 09:46:00,79.0,77.1,29.86,North,360,7.0,10.0,94,0.00,,---,0.00,VWS V14.01,2013-10-08 13:46:00,
2013-10-08 09:50:00,79.1,76.6,29.87,North,360,5.0,10.0,92,0.00,,---,0.00,VWS V14.01,2013-10-08 13:50:00,
2013-10-08 09:51:00,79.2,76.7,29.87,North,360,5.0,7.0,92,0.00,,---,0.00,VWS V14.01,2013-10-08 13:51:00,
2013-10-08 09:56:00,79.7,77.2,29.87,North,360,2.0,7.0,92,0.00,,---,0.00,VWS V14.01,2013-10-08 13:56:00,
2013-10-08 10:00:00,80.2,77.0,29.87,North,360,6.0,8.0,90,0.00,,---,0.00,VWS V14.01,2013-10-08 14:00:00,
2013-10-08 10:01:00,80.3,77.1,29.87,North,360,4.0,9.0,90,0.00,,---,0.00,VWS V14.01,2013-10-08 14:01:00,
2013-10-08 10:06:00,80.5,76.6,29.87,North,360,3.0,11.0,88,0.00,,---,0.00,VWS V14.01,2013-10-08 14:06:00,
2013-10-08 10:10:00,80.6,77.1,29.87,North,360,5.0,11.0,89,0.00,,---,0.00,VWS V14.01,2013-10-08 14:10:00,
2013-10-08 10:11:00,80.6,76.7,29.87,North,360,10.0,10.0,88,0.00,,---,0.00,VWS V14.01,2013-10-08 14:11:00,
2013-10-08 10:16:00,80.7,76.5,29.87,North,360,3.0,10.0,87,0.01,,---,0.01,VWS V14.01,2013-10-08 14:16:00,
2013-10-08 10:20:00,81.0,76.4,29.87,North,360,10.0,13.0,86,0.01,,---,0.01,VWS V14.01,2013-10-08 14:20:00,
2013-10-08 10:21:00,81.0,76.4,29.87,North,360,5.0,14.0,86,0.01,,---,0.01,VWS V14.01,2013-10-08 14:21:00,
2013-10-08 10:26:00,81.1,76.5,29.87,North,360,8.0,14.0,86,0.01,,---,0.01,VWS V14.01,2013-10-08 14:26:00,
2013-10-08 10:30:00,81.6,76.7,29.87,North,360,4.0,14.0,85,0.01,,---,0.01,VWS V14.01,2013-10-08 14:30:00,
2013-10-08 10:31:00,81.6,76.7,29.87,North,360,6.0,6.0,85,0.01,,---,0.01,VWS V14.01,2013-10-08 14:31:00,
2013-10-08 10:36:00,82.0,76.3,29.87,North,360,9.0,13.0,83,0.01,,---,0.01,VWS V14.01,2013-10-08 14:36:00,
2013-10-08 10:40:00,82.6,77.3,29.87,North,360,8.0,13.0,84,0.01,,---,0.01,VWS V14.01,2013-10-08 14:40:00,
2013-10-08 10:41:00,82.6,77.3,29.87,North,360,6.0,10.0,84,0.01,,---,0.01,VWS V14.01,2013-10-08 14:41:00,
2013-10-08 10:46:00,83.2,77.5,29.87,North,360,5.0,10.0,83,0.01,,---,0.01,VWS V14.01,2013-10-08 14:46:00,
2013-10-08 10:50:00,83.4,77.3,29.87,North,360,7.0,10.0,82,0.01,,---,0.01,VWS V14.01,2013-10-08 14:50:00,
2013-10-08 10:51:00,83.4,77.0,29.87,North,360,7.0,10.0,81,0.01,,---,0.01,VWS V14.01,2013-10-08 14:51:00,
2013-10-08 10:56:00,83.5,76.3,29.87,North,360,10.0,13.0,79,0.01,,---,0.01,VWS V14.01,2013-10-08 14:56:00,
2013-10-08 11:00:00,83.7,76.9,29.87,North,360,3.0,13.0,80,0.01,,---,0.01,VWS V14.01,2013-10-08 15:00:00,
2013-10-08 11:01:00,83.8,77.0,29.87,North,360,3.0,4.0,80,0.01,,---,0.01,VWS V14.01,2013-10-08 15:01:00,
2013-10-08 11:06:00,84.4,77.2,29.87,North,360,4.0,11.0,79,0.01,,---,0.01,VWS V14.01,2013-10-08 15:06:00,
2013-10-08 11:10:00,84.5,76.9,29.87,North,360,4.0,11.0,78,0.01,,---,0.01,VWS V14.01,2013-10-08 15:10:00,
2013-10-08 11:11:00,84.4,76.8,29.87,North,360,7.0,7.0,78,0.01,,---,0.01,VWS V14.01,2013-10-08 15:11:00,
2013-10-08 11:16:00,84.5,76.5,29.87,North,360,4.0,10.0,77,0.01,,---,0.01,VWS V14.01,2013-10-08 15:16:00,
2013-10-08 11:20:00,85.2,76.8,29.88,North,360,7.0,11.0,76,0.01,,---,0.01,VWS V14.01,2013-10-08 15:20:00,
2013-10-08 11:21:00,85.3,76.9,29.87,North,360,6.0,7.0,76,0.00,,---,0.01,VWS V14.01,2013-10-08 15:21:00,
2013-10-08 11:26:00,86.3,78.2,29.87,North,360,6.0,10.0,77,0.00,,---,0.01,VWS V14.01,2013-10-08 15:26:00,
2013-10-08 11:30:00,86.3,77.8,29.87,North,360,6.0,10.0,76,0.00,,---,0.01,VWS V14.01,2013-10-08 15:30:00,
2013-10-08 11:31:00,86.3,77.0,29.87,North,360,5.0,6.0,74,0.00,,---,0.01,VWS V14.01,2013-10-08 15:31:00,
2013-10-08 11:36:00,86.0,76.3,29.87,North,360,5.0,12.0,73,0.00,,---,0.01,VWS V14.01,2013-10-08 15:36:00,
2013-10-08 11:40:00,86.3,76.6,29.87,North,360,5.0,12.0,73,0.00,,---,0.01,VWS V14.01,2013-10-08 15:40:00,
2013-10-08 11:41:00,86.3,76.6,29.87,North,360,4.0,9.0,73,0.00,,---,0.01,VWS V14.01,2013-10-08 15:41:00,
2013-10-08 11:46:00,86.5,76.4,29.87,North,360,8.0,10.0,72,0.00,,---,0.01,VWS V14.01,2013-10-08 15:46:00,
2013-10-08 11:50:00,85.6,75.1,29.87,North,360,4.0,12.0,71,0.00,,---,0.01,VWS V14.01,2013-10-08 15:50:00,
2013-10-08 11:51:00,85.4,75.3,29.87,North,360,4.0,6.0,72,0.00,,---,0.01,VWS V14.01,2013-10-08 15:51:00,
2013-10-08 11:56:00,84.9,75.7,29.87,North,360,3.0,12.0,74,0.00,,---,0.01,VWS V14.01,2013-10-08 15:56:00,
2013-10-08 12:00:00,85.6,74.7,29.87,North,360,6.0,15.0,70,0.00,,---,0.01,VWS V14.01,2013-10-08 16:00:00,
2013-10-08 12:01:00,85.6,75.1,29.87,North,360,10.0,11.0,71,0.00,,---,0.01,VWS V14.01,2013-10-08 16:01:00,
2013-10-08 12:06:00,85.4,74.9,29.87,North,360,5.0,15.0,71,0.00,,---,0.01,VWS V14.01,2013-10-08 16:06:00,
2013-10-08 12:10:00,85.1,75.1,29.87,North,360,7.0,16.0,72,0.00,,---,0.01,VWS V14.01,2013-10-08 16:10:00,
2013-10-08 12:11:00,85.0,75.0,29.87,North,360,9.0,11.0,72,0.00,,---,0.01,VWS V14.01,2013-10-08 16:11:00,
2013-10-08 12:16:00,84.3,74.3,29.87,North,360,6.0,15.0,72,0.00,,---,0.01,VWS V14.01,2013-10-08 16:16:00,
2013-10-08 12:20:00,85.3,74.8,29.87,North,360,2.0,15.0,71,0.00,,---,0.01,VWS V14.01,2013-10-08 16:20:00,
2013-10-08 12:21:00,85.5,75.0,29.87,North,360,9.0,9.0,71,0.00,,---,0.01,VWS V14.01,2013-10-08 16:21:00,
2013-10-08 12:26:00,85.7,74.8,29.87,North,360,5.0,15.0,70,0.00,,---,0.01,VWS V14.01,2013-10-08 16:26:00,
2013-10-08 12:30:00,85.3,74.4,29.86,North,360,9.0,15.0,70,0.00,,---,0.01,VWS V14.01,2013-10-08 16:30:00,
2013-10-08 12:31:00,85.2,74.3,29.86,North,360,6.0,10.0,70,0.00,,---,0.01,VWS V14.01,2013-10-08 16:31:00,
2013-10-08 12:36:00,85.4,74.5,29.86,North,360,7.0,15.0,70,0.00,,---,0.01,VWS V14.01,2013-10-08 16:36:00,
2013-10-08 12:40:00,86.3,75.4,29.86,North,360,12.0,15.0,70,0.00,,---,0.01,VWS V14.01,2013-10-08 16:40:00,
2013-10-08 12:41:00,86.2,75.3,29.86,North,360,10.0,16.0,70,0.00,,---,0.01,VWS V14.01,2013-10-08 16:41:00,
2013-10-08 12:46:00,85.2,74.3,29.86,North,360,9.0,16.0,70,0.00,,---,0.01,VWS V14.01,2013-10-08 16:46:00,
2013-10-08 12:50:00,85.2,74.3,29.86,North,360,17.0,17.0,70,0.00,,---,0.01,VWS V14.01,2013-10-08 16:50:00,
2013-10-08 12:51:00,85.3,74.4,29.86,North,360,12.0,17.0,70,0.00,,---,0.01,VWS V14.01,2013-10-08 16:51:00,
2013-10-08 12:56:00,85.6,74.7,29.86,North,360,6.0,19.0,70,0.00,,---,0.01,VWS V14.01,2013-10-08 16:56:00,
2013-10-08 13:00:00,86.3,76.6,29.86,North,360,8.0,19.0,73,0.00,,---,0.01,VWS V14.01,2013-10-08 17:00:00,
2013-10-08 13:01:00,86.4,75.5,29.86,North,360,9.0,13.0,70,0.00,,---,0.01,VWS V14.01,2013-10-08 17:01:00,
2013-10-08 13:06:00,87.7,74.9,29.85,North,360,9.0,14.0,66,0.00,,---,0.01,VWS V14.01,2013-10-08 17:06:00,
2013-10-08 13:10:00,87.9,74.2,29.85,North,360,11.0,14.0,64,0.00,,---,0.01,VWS V14.01,2013-10-08 17:10:00,
2013-10-08 13:11:00,87.9,75.1,29.85,North,360,7.0,12.0,66,0.00,,---,0.01,VWS V14.01,2013-10-08 17:11:00,
2013-10-08 13:16:00,88.1,75.3,29.85,North,360,8.0,15.0,66,0.00,,---,0.01,VWS V14.01,2013-10-08 17:16:00,
2013-10-08 13:20:00,88.4,75.1,29.85,North,360,11.0,15.0,65,0.00,,---,0.01,VWS V14.01,2013-10-08 17:20:00,
2013-10-08 13:21:00,88.4,75.1,29.85,North,360,4.0,11.0,65,0.00,,---,0.01,VWS V14.01,2013-10-08 17:21:00,
2013-10-08 13:26:00,88.1,73.4,29.85,North,360,12.0,13.0,62,0.00,,---,0.01,VWS V14.01,2013-10-08 17:26:00,
2013-10-08 13:30:00,87.6,72.5,29.85,North,360,2.0,13.0,61,0.00,,---,0.01,VWS V14.01,2013-10-08 17:30:00,
2013-10-08 13:31:00,87.4,73.7,29.85,North,360,9.0,9.0,64,0.00,,---,0.01,VWS V14.01,2013-10-08 17:31:00,
2013-10-08 13:36:00,86.1,73.4,29.85,North,360,8.0,16.0,66,0.00,,---,0.01,VWS V14.01,2013-10-08 17:36:00,
2013-10-08 13:40:00,83.7,73.3,29.85,North,360,8.0,16.0,71,0.00,,---,0.01,VWS V14.01,2013-10-08 17:40:00,
2013-10-08 13:41:00,83.4,73.4,29.85,North,360,6.0,8.0,72,0.00,,---,0.01,VWS V14.01,2013-10-08 17:41:00,
2013-10-08 13:46:00,81.1,74.0,29.85,North,360,5.0,10.0,79,0.00,,---,0.01,VWS V14.01,2013-10-08 17:46:00,
2013-10-08 13:50:00,80.9,73.8,29.85,North,360,4.0,11.0,79,0.00,,---,0.01,VWS V14.01,2013-10-08 17:50:00,
2013-10-08 13:51:00,80.9,73.8,29.84,North,360,2.0,5.0,79,0.00,,---,0.01,VWS V14.01,2013-10-08 17:51:00,
2013-10-08 13:56:00,81.0,73.5,29.85,North,360,6.0,13.0,78,0.00,,---,0.01,VWS V14.01,2013-10-08 17:56:00,
2013-10-08 14:00:00,81.2,73.7,29.84,North,360,5.0,13.0,78,0.00,,---,0.01,VWS V14.01,2013-10-08 18:00:00,
2013-10-08 14:01:00,81.4,73.9,29.84,North,360,6.0,8.0,78,0.00,,---,0.01,VWS V14.01,2013-10-08 18:01:00,
2013-10-08 14:06:00,82.6,74.7,29.84,North,360,5.0,10.0,77,0.00,,---,0.01,VWS V14.01,2013-10-08 18:06:00,
2013-10-08 14:10:00,84.1,76.1,29.83,North,360,11.0,11.0,77,0.00,,---,0.01,VWS V14.01,2013-10-08 18:10:00,
2013-10-08 14:11:00,84.3,75.9,29.83,North,360,5.0,11.0,76,0.00,,---,0.01,VWS V14.01,2013-10-08 18:11:00,
2013-10-08 14:16:00,85.4,76.2,29.83,North,360,8.0,13.0,74,0.00,,---,0.01,VWS V14.01,2013-10-08 18:16:00,
2013-10-08 14:20:00,86.0,76.3,29.83,North,360,11.0,14.0,73,0.00,,---,0.01,VWS V14.01,2013-10-08 18:20:00,
2013-10-08 14:21:00,86.1,76.4,29.83,North,360,12.0,12.0,73,0.00,,---,0.01,VWS V14.01,2013-10-08 18:21:00,
2013-10-08 14:26:00,86.7,74.9,29.83,North,360,9.0,14.0,68,0.00,,---,0.01,VWS V14.01,2013-10-08 18:26:00,
2013-10-08 14:30:00,87.1,75.3,29.83,North,360,14.0,14.0,68,0.00,,---,0.01,VWS V14.01,2013-10-08 18:30:00,
2013-10-08 14:31:00,87.1,75.3,29.84,North,360,16.0,19.0,68,0.00,,---,0.01,VWS V14.01,2013-10-08 18:31:00,
2013-10-08 14:36:00,82.1,74.2,29.84,North,360,9.0,19.0,77,0.05,,---,0.06,VWS V14.01,2013-10-08 18:36:00,
2013-10-08 14:40:00,79.6,74.3,29.84,North,360,5.0,19.0,84,0.06,,---,0.07,VWS V14.01,2013-10-08 18:40:00,
2013-10-08 14:41:00,79.5,74.6,29.83,North,360,6.0,7.0,85,0.06,,---,0.07,VWS V14.01,2013-10-08 18:41:00,
2013-10-08 14:46:00,78.9,74.4,29.84,North,360,5.0,10.0,86,0.06,,---,0.07,VWS V14.01,2013-10-08 18:46:00,
2013-10-08 14:50:00,77.7,72.8,29.84,North,360,10.0,18.0,85,0.16,,---,0.17,VWS V14.01,2013-10-08 18:50:00,
2013-10-08 14:51:00,77.5,73.0,29.84,North,360,13.0,13.0,86,0.16,,---,0.17,VWS V14.01,2013-10-08 18:51:00,
2013-10-08 14:56:00,76.3,72.8,29.84,North,360,1.0,13.0,89,0.19,,---,0.20,VWS V14.01,2013-10-08 18:56:00,
2013-10-08 15:00:00,76.6,74.4,29.84,North,360,0.0,13.0,93,0.19,,---,0.20,VWS V14.01,2013-10-08 19:00:00,
2013-10-08 15:01:00,76.7,74.5,29.83,North,360,2.0,2.0,93,0.19,,---,0.20,VWS V14.01,2013-10-08 19:01:00,
2013-10-08 15:06:00,77.0,74.8,29.83,North,360,1.0,3.0,93,0.19,,---,0.20,VWS V14.01,2013-10-08 19:06:00,
2013-10-08 15:10:00,77.4,75.2,29.84,North,360,6.0,9.0,93,0.19,,---,0.20,VWS V14.01,2013-10-08 19:10:00,
2013-10-08 15:11:00,77.4,75.2,29.84,North,360,3.0,6.0,93,0.19,,---,0.20,VWS V14.01,2013-10-08 19:11:00,
2013-10-08 15:16:00,77.3,74.5,29.83,North,360,8.0,14.0,91,0.19,,---,0.20,VWS V14.01,2013-10-08 19:16:00,
2013-10-08 15:20:00,77.0,73.5,29.83,North,360,8.0,15.0,89,0.19,,---,0.20,VWS V14.01,2013-10-08 19:20:00,
2013-10-08 15:21:00,76.9,73.4,29.83,North,360,8.0,9.0,89,0.19,,---,0.20,VWS V14.01,2013-10-08 19:21:00,
2013-10-08 15:26:00,76.7,72.9,29.83,North,360,10.0,11.0,88,0.19,,---,0.20,VWS V14.01,2013-10-08 19:26:00,
2013-10-08 15:30:00,76.7,72.9,29.83,North,360,5.0,11.0,88,0.19,,---,0.20,VWS V14.01,2013-10-08 19:30:00,
2013-10-08 15:31:00,76.7,72.9,29.83,North,360,3.0,6.0,88,0.19,,---,0.20,VWS V14.01,2013-10-08 19:31:00,
2013-10-08 15:36:00,76.9,73.1,29.83,North,360,1.0,8.0,88,0.19,,---,0.20,VWS V14.01,2013-10-08 19:36:00,
2013-10-08 15:40:00,77.2,73.7,29.83,North,360,0.0,8.0,89,0.19,,---,0.20,VWS V14.01,2013-10-08 19:40:00,
2013-10-08 15:41:00,77.2,73.7,29.83,North,360,3.0,3.0,89,0.13,,---,0.20,VWS V14.01,2013-10-08 19:41:00,
2013-10-08 15:46:00,79.1,74.6,29.83,North,360,5.0,7.0,86,0.13,,---,0.20,VWS V14.01,2013-10-08 19:46:00,
2013-10-08 15:50:00,81.8,77.9,29.83,North,360,4.0,7.0,88,0.13,,---,0.20,VWS V14.01,2013-10-08 19:50:00,
2013-10-08 15:51:00,81.9,78.0,29.83,North,360,3.0,4.0,88,0.03,,---,0.20,VWS V14.01,2013-10-08 19:51:00,
2013-10-08 15:56:00,82.9,76.5,29.83,North,360,4.0,10.0,81,0.03,,---,0.20,VWS V14.01,2013-10-08 19:56:00,
2013-10-08 16:00:00,82.7,75.2,29.83,North,360,2.0,12.0,78,0.03,,---,0.20,VWS V14.01,2013-10-08 20:00:00,
2013-10-08 16:01:00,82.7,75.2,29.83,North,360,0.0,2.0,78,0.00,,---,0.20,VWS V14.01,2013-10-08 20:01:00,
2013-10-08 16:06:00,83.4,76.2,29.83,North,360,5.0,10.0,79,0.00,,---,0.20,VWS V14.01,2013-10-08 20:06:00,
2013-10-08 16:10:00,84.1,76.1,29.83,North,360,7.0,10.0,77,0.00,,---,0.20,VWS V14.01,2013-10-08 20:10:00,
2013-10-08 16:11:00,84.1,76.1,29.83,North,360,5.0,7.0,77,0.00,,---,0.20,VWS V14.01,2013-10-08 20:11:00,
2013-10-08 16:16:00,84.3,75.9,29.83,North,360,8.0,10.0,76,0.00,,---,0.20,VWS V14.01,2013-10-08 20:16:00,
2013-10-08 16:20:00,84.6,75.4,29.83,North,360,4.0,13.0,74,0.00,,---,0.20,VWS V14.01,2013-10-08 20:20:00,
2013-10-08 16:21:00,84.6,75.8,29.83,North,360,4.0,6.0,75,0.00,,---,0.20,VWS V14.01,2013-10-08 20:21:00,
2013-10-08 16:26:00,84.7,75.5,29.84,North,360,7.0,10.0,74,0.00,,---,0.20,VWS V14.01,2013-10-08 20:26:00,
2013-10-08 16:30:00,84.1,74.9,29.84,North,360,7.0,12.0,74,0.00,,---,0.20,VWS V14.01,2013-10-08 20:30:00,
2013-10-08 16:31:00,84.0,75.2,29.84,North,360,6.0,9.0,75,0.00,,---,0.20,VWS V14.01,2013-10-08 20:31:00,
2013-10-08 16:36:00,83.5,75.9,29.84,North,360,5.0,11.0,78,0.00,,---,0.20,VWS V14.01,2013-10-08 20:36:00,
2013-10-08 16:40:00,83.2,75.6,29.84,North,360,4.0,11.0,78,0.00,,---,0.20,VWS V14.01,2013-10-08 20:40:00,
2013-10-08 16:41:00,83.2,75.6,29.84,North,360,7.0,7.0,78,0.00,,---,0.20,VWS V14.01,2013-10-08 20:41:00,
2013-10-08 16:46:00,82.8,74.9,29.84,North,360,6.0,10.0,77,0.00,,---,0.20,VWS V14.01,2013-10-08 20:46:00,
2013-10-08 16:50:00,82.3,74.8,29.85,North,360,5.0,16.0,78,0.00,,---,0.20,VWS V14.01,2013-10-08 20:50:00,
2013-10-08 16:51:00,82.3,74.8,29.84,North,360,3.0,6.0,78,0.00,,---,0.20,VWS V14.01,2013-10-08 20:51:00,
2013-10-08 16:56:00,81.5,74.0,29.85,North,360,7.0,11.0,78,0.00,,---,0.20,VWS V14.01,2013-10-08 20:56:00,
2013-10-08 17:00:00,80.9,73.8,29.85,North,360,4.0,11.0,79,0.00,,---,0.20,VWS V14.01,2013-10-08 21:00:00,
2013-10-08 17:01:00,80.8,74.1,29.85,North,360,7.0,8.0,80,0.00,,---,0.20,VWS V14.01,2013-10-08 21:01:00,
2013-10-08 17:06:00,80.5,74.1,29.85,North,360,6.0,11.0,81,0.00,,---,0.20,VWS V14.01,2013-10-08 21:06:00,
2013-10-08 17:10:00,80.3,74.3,29.85,North,360,8.0,11.0,82,0.00,,---,0.20,VWS V14.01,2013-10-08 21:10:00,
2013-10-08 17:11:00,80.3,74.3,29.85,North,360,10.0,10.0,82,0.00,,---,0.20,VWS V14.01,2013-10-08 21:11:00,
2013-10-08 17:16:00,80.2,74.6,29.85,North,360,5.0,10.0,83,0.00,,---,0.20,VWS V14.01,2013-10-08 21:16:00,
2013-10-08 17:20:00,80.0,74.4,29.85,North,360,4.0,10.0,83,0.00,,---,0.20,VWS V14.01,2013-10-08 21:20:00,
2013-10-08 17:21:00,79.9,74.3,29.85,North,360,3.0,4.0,83,0.00,,---,0.20,VWS V14.01,2013-10-08 21:21:00,
2013-10-08 17:26:00,79.9,74.3,29.85,North,360,3.0,11.0,83,0.00,,---,0.20,VWS V14.01,2013-10-08 21:26:00,
2013-10-08 17:30:00,80.8,75.2,29.85,North,360,5.0,11.0,83,0.00,,---,0.20,VWS V14.01,2013-10-08 21:30:00,
2013-10-08 17:31:00,80.8,75.5,29.85,North,360,5.0,6.0,84,0.00,,---,0.20,VWS V14.01,2013-10-08 21:31:00,
2013-10-08 17:36:00,81.2,74.8,29.85,North,360,3.0,13.0,81,0.00,,---,0.20,VWS V14.01,2013-10-08 21:36:00,
2013-10-08 17:40:00,81.9,74.8,29.84,North,360,9.0,13.0,79,0.00,,---,0.20,VWS V14.01,2013-10-08 21:40:00,
2013-10-08 17:41:00,81.9,74.8,29.84,North,360,5.0,9.0,79,0.00,,---,0.20,VWS V14.01,2013-10-08 21:41:00,
2013-10-08 17:46:00,82.4,74.5,29.84,North,360,4.0,9.0,77,0.00,,---,0.20,VWS V14.01,2013-10-08 21:46:00,
2013-10-08 17:50:00,82.6,75.1,29.84,North,360,4.0,9.0,78,0.00,,---,0.20,VWS V14.01,2013-10-08 21:50:00,
2013-10-08 17:51:00,82.7,75.2,29.84,North,360,8.0,10.0,78,0.00,,---,0.20,VWS V14.01,2013-10-08 21:51:00,
2013-10-08 17:56:00,82.8,75.2,29.84,North,360,7.0,10.0,78,0.00,,---,0.20,VWS V14.01,2013-10-08 21:56:00,
2013-10-08 18:00:00,82.7,75.2,29.85,North,360,4.0,10.0,78,0.00,,---,0.20,VWS V14.01,2013-10-08 22:00:00,
2013-10-08 18:01:00,82.7,75.2,29.84,North,360,5.0,5.0,78,0.00,,---,0.20,VWS V14.01,2013-10-08 22:01:00,
2013-10-08 18:06:00,82.9,75.7,29.84,North,360,4.0,7.0,79,0.00,,---,0.20,VWS V14.01,2013-10-08 22:06:00,
2013-10-08 18:10:00,82.9,75.7,29.85,North,360,6.0,7.0,79,0.00,,---,0.20,VWS V14.01,2013-10-08 22:10:00,
2013-10-08 18:11:00,82.9,75.7,29.85,North,360,6.0,8.0,79,0.00,,---,0.20,VWS V14.01,2013-10-08 22:11:00,
2013-10-08 18:16:00,82.8,75.2,29.85,North,360,3.0,8.0,78,0.00,,---,0.20,VWS V14.01,2013-10-08 22:16:00,
2013-10-08 18:20:00,81.9,74.4,29.86,North,360,10.0,12.0,78,0.00,,---,0.20,VWS V14.01,2013-10-08 22:20:00,
2013-10-08 18:21:00,81.9,74.4,29.86,North,360,10.0,12.0,78,0.00,,---,0.20,VWS V14.01,2013-10-08 22:21:00,
2013-10-08 18:26:00,79.3,73.7,29.86,North,360,6.0,15.0,83,0.15,,---,0.35,VWS V14.01,2013-10-08 22:26:00,
2013-10-08 18:30:00,77.4,73.6,29.86,North,360,1.0,15.0,88,0.19,,---,0.39,VWS V14.01,2013-10-08 22:30:00,
2013-10-08 18:31:00,77.2,73.4,29.86,North,360,2.0,4.0,88,0.20,,---,0.40,VWS V14.01,2013-10-08 22:31:00,
2013-10-08 18:36:00,76.4,73.2,29.86,North,360,0.0,5.0,90,0.21,,---,0.41,VWS V14.01,2013-10-08 22:36:00,
2013-10-08 18:40:00,76.1,73.3,29.86,North,360,3.0,5.0,91,0.21,,---,0.41,VWS V14.01,2013-10-08 22:40:00,
2013-10-08 18:41:00,76.1,73.3,29.86,North,360,2.0,3.0,91,0.21,,---,0.41,VWS V14.01,2013-10-08 22:41:00,
2013-10-08 18:46:00,75.9,73.4,29.87,North,360,0.0,3.0,92,0.21,,---,0.41,VWS V14.01,2013-10-08 22:46:00,
2013-10-08 18:50:00,75.7,73.5,29.87,North,360,2.0,3.0,93,0.21,,---,0.41,VWS V14.01,2013-10-08 22:50:00,
2013-10-08 18:51:00,75.7,73.5,29.87,North,360,2.0,2.0,93,0.21,,---,0.41,VWS V14.01,2013-10-08 22:51:00,
2013-10-08 18:56:00,75.7,73.8,29.86,North,360,3.0,3.0,94,0.21,,---,0.41,VWS V14.01,2013-10-08 22:56:00,
2013-10-08 19:00:00,75.5,73.7,29.87,North,360,0.0,3.0,94,0.21,,---,0.41,VWS V14.01,2013-10-08 23:00:00,
2013-10-08 19:01:00,75.5,73.7,29.87,North,360,0.0,0.0,94,0.21,,---,0.41,VWS V14.01,2013-10-08 23:01:00,
2013-10-08 19:06:00,75.5,73.7,29.88,North,360,4.0,5.0,94,0.21,,---,0.41,VWS V14.01,2013-10-08 23:06:00,
2013-10-08 19:10:00,75.2,73.4,29.88,North,360,4.0,7.0,94,0.21,,---,0.41,VWS V14.01,2013-10-08 23:10:00,
2013-10-08 19:11:00,75.2,73.4,29.88,North,360,4.0,6.0,94,0.21,,---,0.41,VWS V14.01,2013-10-08 23:11:00,
2013-10-08 19:16:00,74.8,73.0,29.87,North,360,4.0,9.0,94,0.27,,---,0.47,VWS V14.01,2013-10-08 23:16:00,
2013-10-08 19:20:00,74.7,72.9,29.88,North,360,1.0,9.0,94,0.29,,---,0.49,VWS V14.01,2013-10-08 23:20:00,
2013-10-08 19:21:00,74.7,72.9,29.88,North,360,2.0,2.0,94,0.29,,---,0.49,VWS V14.01,2013-10-08 23:21:00,
2013-10-08 19:26:00,74.7,73.2,29.88,North,360,0.0,2.0,95,0.29,,---,0.49,VWS V14.01,2013-10-08 23:26:00,
2013-10-08 19:30:00,74.7,73.2,29.88,North,360,0.0,2.0,95,0.29,,---,0.49,VWS V14.01,2013-10-08 23:30:00,
2013-10-08 19:31:00,74.7,73.2,29.88,North,360,0.0,0.0,95,0.10,,---,0.49,VWS V14.01,2013-10-08 23:31:00,
2013-10-08 19:36:00,74.7,73.2,29.89,North,360,0.0,2.0,95,0.10,,---,0.49,VWS V14.01,2013-10-08 23:36:00,
2013-10-08 19:40:00,74.7,73.2,29.88,North,360,0.0,2.0,95,0.10,,---,0.49,VWS V14.01,2013-10-08 23:40:00,
2013-10-08 19:41:00,74.7,73.2,29.89,North,360,0.0,0.0,95,0.08,,---,0.49,VWS V14.01,2013-10-08 23:41:00,
2013-10-08 19:46:00,74.6,73.1,29.89,North,360,7.0,10.0,95,0.08,,---,0.49,VWS V14.01,2013-10-08 23:46:00,
2013-10-08 19:50:00,74.5,73.0,29.89,North,360,3.0,10.0,95,0.08,,---,0.49,VWS V14.01,2013-10-08 23:50:00,
2013-10-08 19:51:00,74.5,73.0,29.89,North,360,3.0,6.0,95,0.08,,---,0.49,VWS V14.01,2013-10-08 23:51:00,
2013-10-08 19:56:00,74.3,72.8,29.89,North,360,3.0,10.0,95,0.08,,---,0.49,VWS V14.01,2013-10-08 23:56:00,
2013-10-08 20:00:00,73.9,72.4,29.90,North,360,5.0,10.0,95,0.08,,---,0.49,VWS V14.01,2013-10-09 00:00:00,
2013-10-08 20:01:00,73.9,72.4,29.90,North,360,9.0,13.0,95,0.08,,---,0.49,VWS V14.01,2013-10-09 00:01:00,
2013-10-08 20:06:00,73.6,72.1,29.90,North,360,4.0,13.0,95,0.08,,---,0.49,VWS V14.01,2013-10-09 00:06:00,
2013-10-08 20:10:00,73.4,71.6,29.90,North,360,9.0,13.0,94,0.08,,---,0.49,VWS V14.01,2013-10-09 00:10:00,
2013-10-08 20:11:00,73.4,71.6,29.90,North,360,6.0,9.0,94,0.08,,---,0.49,VWS V14.01,2013-10-09 00:11:00,
2013-10-08 20:16:00,73.3,71.8,29.90,North,360,4.0,10.0,95,0.08,,---,0.49,VWS V14.01,2013-10-09 00:16:00,
2013-10-08 20:20:00,73.2,71.7,29.90,North,360,10.0,10.0,95,0.08,,---,0.49,VWS V14.01,2013-10-09 00:20:00,
2013-10-08 20:21:00,73.2,71.7,29.91,North,360,7.0,10.0,95,0.00,,---,0.49,VWS V14.01,2013-10-09 00:21:00,
2013-10-08 20:26:00,73.2,71.7,29.91,North,360,4.0,12.0,95,0.00,,---,0.49,VWS V14.01,2013-10-09 00:26:00,
2013-10-08 20:30:00,73.2,71.7,29.91,North,360,4.0,12.0,95,0.00,,---,0.49,VWS V14.01,2013-10-09 00:30:00,
2013-10-08 20:31:00,73.2,71.7,29.91,North,360,2.0,5.0,95,0.00,,---,0.49,VWS V14.01,2013-10-09 00:31:00,
2013-10-08 20:36:00,73.3,71.8,29.91,North,360,2.0,6.0,95,0.00,,---,0.49,VWS V14.01,2013-10-09 00:36:00,
2013-10-08 20:40:00,73.3,71.8,29.91,North,360,3.0,6.0,95,0.00,,---,0.49,VWS V14.01,2013-10-09 00:40:00,
2013-10-08 20:41:00,73.3,71.8,29.92,North,360,3.0,3.0,95,0.00,,---,0.49,VWS V14.01,2013-10-09 00:41:00,
2013-10-08 20:46:00,73.4,71.9,29.91,North,360,7.0,8.0,95,0.00,,---,0.49,VWS V14.01,2013-10-09 00:46:00,
2013-10-08 20:50:00,73.5,72.0,29.92,North,360,6.0,10.0,95,0.00,,---,0.49,VWS V14.01,2013-10-09 00:50:00,
2013-10-08 20:51:00,73.5,72.0,29.92,North,360,4.0,8.0,95,0.00,,---,0.49,VWS V14.01,2013-10-09 00:51:00,
2013-10-08 20:56:00,73.5,72.0,29.92,North,360,0.0,8.0,95,0.00,,---,0.49,VWS V14.01,2013-10-09 00:56:00,
2013-10-08 21:00:00,73.6,72.1,29.92,North,360,0.0,8.0,95,0.00,,---,0.49,VWS V14.01,2013-10-09 01:00:00,
2013-10-08 21:01:00,73.6,72.1,29.92,North,360,0.0,0.0,95,0.00,,---,0.49,VWS V14.01,2013-10-09 01:01:00,
2013-10-08 21:06:00,73.7,72.2,29.92,North,360,2.0,5.0,95,0.00,,---,0.49,VWS V14.01,2013-10-09 01:06:00,
2013-10-08 21:10:00,73.7,72.2,29.92,North,360,0.0,7.0,95,0.00,,---,0.49,VWS V14.01,2013-10-09 01:10:00,
2013-10-08 21:11:00,73.7,72.2,29.92,North,360,2.0,3.0,95,0.00,,---,0.49,VWS V14.01,2013-10-09 01:11:00,
2013-10-08 21:16:00,73.7,72.2,29.93,North,360,2.0,5.0,95,0.00,,---,0.49,VWS V14.01,2013-10-09 01:16:00,
2013-10-08 21:20:00,73.7,72.2,29.93,North,360,3.0,5.0,95,0.00,,---,0.49,VWS V14.01,2013-10-09 01:20:00,
2013-10-08 21:21:00,73.7,72.2,29.93,North,360,4.0,4.0,95,0.00,,---,0.49,VWS V14.01,2013-10-09 01:21:00,
2013-10-08 21:26:00,73.7,72.2,29.92,North,360,5.0,7.0,95,0.00,,---,0.49,VWS V14.01,2013-10-09 01:26:00,
2013-10-08 21:30:00,73.7,72.2,29.92,North,360,2.0,9.0,95,0.00,,---,0.49,VWS V14.01,2013-10-09 01:30:00,
2013-10-08 21:31:00,73.7,72.2,29.92,North,360,2.0,3.0,95,0.00,,---,0.49,VWS V14.01,2013-10-09 01:31:00,
2013-10-08 21:36:00,73.7,72.2,29.92,North,360,3.0,7.0,95,0.00,,---,0.49,VWS V14.01,2013-10-09 01:36:00,
2013-10-08 21:40:00,73.7,72.2,29.92,North,360,3.0,11.0,95,0.00,,---,0.49,VWS V14.01,2013-10-09 01:40:00,
2013-10-08 21:41:00,73.7,72.2,29.92,North,360,4.0,5.0,95,0.00,,---,0.49,VWS V14.01,2013-10-09 01:41:00,
2013-10-08 21:46:00,73.7,72.2,29.93,North,360,4.0,10.0,95,0.00,,---,0.49,VWS V14.01,2013-10-09 01:46:00,
2013-10-08 21:50:00,73.7,72.2,29.93,North,360,2.0,10.0,95,0.00,,---,0.49,VWS V14.01,2013-10-09 01:50:00,
2013-10-08 21:51:00,73.7,72.2,29.93,North,360,2.0,2.0,95,0.00,,---,0.49,VWS V14.01,2013-10-09 01:51:00,
2013-10-08 21:56:00,73.7,71.9,29.93,North,360,7.0,13.0,94,0.00,,---,0.49,VWS V14.01,2013-10-09 01:56:00,
2013-10-08 22:00:00,73.7,71.9,29.93,North,360,6.0,13.0,94,0.00,,---,0.49,VWS V14.01,2013-10-09 02:00:00,
2013-10-08 22:01:00,73.7,71.9,29.93,North,360,5.0,6.0,94,0.00,,---,0.49,VWS V14.01,2013-10-09 02:01:00,
2013-10-08 22:06:00,73.8,72.0,29.93,North,360,3.0,10.0,94,0.00,,---,0.49,VWS V14.01,2013-10-09 02:06:00,
2013-10-08 22:10:00,73.8,72.0,29.93,North,360,4.0,10.0,94,0.00,,---,0.49,VWS V14.01,2013-10-09 02:10:00,
2013-10-08 22:11:00,73.8,72.0,29.93,North,360,4.0,5.0,94,0.00,,---,0.49,VWS V14.01,2013-10-09 02:11:00,
2013-10-08 22:16:00,73.8,72.0,29.93,North,360,12.0,12.0,94,0.00,,---,0.49,VWS V14.01,2013-10-09 02:16:00,
2013-10-08 22:20:00,73.8,72.0,29.93,North,360,6.0,12.0,94,0.00,,---,0.49,VWS V14.01,2013-10-09 02:20:00,
2013-10-08 22:21:00,73.8,72.0,29.93,North,360,6.0,6.0,94,0.00,,---,0.49,VWS V14.01,2013-10-09 02:21:00,
2013-10-08 22:26:00,73.8,72.0,29.93,North,360,2.0,10.0,94,0.00,,---,0.49,VWS V14.01,2013-10-09 02:26:00,
2013-10-08 22:30:00,73.8,72.0,29.93,North,360,2.0,10.0,94,0.00,,---,0.49,VWS V14.01,2013-10-09 02:30:00,
2013-10-08 22:31:00,73.8,72.0,29.94,North,360,3.0,4.0,94,0.00,,---,0.49,VWS V14.01,2013-10-09 02:31:00,
2013-10-08 22:36:00,73.8,71.7,29.93,North,360,7.0,11.0,93,0.00,,---,0.49,VWS V14.01,2013-10-09 02:36:00,
2013-10-08 22:40:00,73.8,71.7,29.93,North,360,4.0,12.0,93,0.00,,---,0.49,VWS V14.01,2013-10-09 02:40:00,
2013-10-08 22:41:00,73.8,71.7,29.93,North,360,6.0,6.0,93,0.00,,---,0.49,VWS V14.01,2013-10-09 02:41:00,
2013-10-08 22:46:00,73.8,71.7,29.93,North,360,7.0,11.0,93,0.00,,---,0.49,VWS V14.01,2013-10-09 02:46:00,
2013-10-08 22:50:00,73.7,71.6,29.93,North,360,3.0,11.0,93,0.00,,---,0.49,VWS V14.01,2013-10-09 02:50:00,
2013-10-08 22:51:00,73.7,71.6,29.93,North,360,2.0,4.0,93,0.00,,---,0.49,VWS V14.01,2013-10-09 02:51:00,
2013-10-08 22:56:00,73.7,71.6,29.93,North,360,9.0,12.0,93,0.00,,---,0.49,VWS V14.01,2013-10-09 02:56:00,
2013-10-08 23:00:00,73.7,71.6,29.93,North,360,5.0,12.0,93,0.00,,---,0.49,VWS V14.01,2013-10-09 03:00:00,
2013-10-08 23:01:00,73.7,71.6,29.93,North,360,5.0,6.0,93,0.00,,---,0.49,VWS V14.01,2013-10-09 03:01:00,
2013-10-08 23:06:00,73.8,71.7,29.94,North,360,8.0,8.0,93,0.00,,---,0.49,VWS V14.01,2013-10-09 03:06:00,
2013-10-08 23:10:00,73.7,71.6,29.93,North,360,7.0,10.0,93,0.00,,---,0.49,VWS V14.01,2013-10-09 03:10:00,
2013-10-08 23:11:00,73.7,71.6,29.93,North,360,5.0,7.0,93,0.00,,---,0.49,VWS V14.01,2013-10-09 03:11:00,
2013-10-08 23:16:00,73.6,71.5,29.94,North,360,9.0,13.0,93,0.00,,---,0.49,VWS V14.01,2013-10-09 03:16:00,
2013-10-08 23:20:00,73.6,71.5,29.94,North,360,8.0,13.0,93,0.00,,---,0.49,VWS V14.01,2013-10-09 03:20:00,
2013-10-08 23:21:00,73.6,71.5,29.94,North,360,4.0,9.0,93,0.00,,---,0.49,VWS V14.01,2013-10-09 03:21:00,
2013-10-08 23:26:00,73.6,71.5,29.94,North,360,4.0,11.0,93,0.00,,---,0.49,VWS V14.01,2013-10-09 03:26:00,
2013-10-08 23:30:00,73.5,71.4,29.94,North,360,4.0,11.0,93,0.00,,---,0.49,VWS V14.01,2013-10-09 03:30:00,
2013-10-08 23:31:00,73.5,71.4,29.94,North,360,5.0,5.0,93,0.00,,---,0.49,VWS V14.01,2013-10-09 03:31:00,
2013-10-08 23:36:00,73.5,71.4,29.94,North,360,4.0,9.0,93,0.00,,---,0.49,VWS V14.01,2013-10-09 03:36:00,
2013-10-08 23:40:00,73.5,71.4,29.93,North,360,8.0,11.0,93,0.00,,---,0.49,VWS V14.01,2013-10-09 03:40:00,
2013-10-08 23:41:00,73.5,71.4,29.93,North,360,4.0,8.0,93,0.00,,---,0.49,VWS V14.01,2013-10-09 03:41:00,
2013-10-08 23:46:00,73.5,71.4,29.93,North,360,4.0,11.0,93,0.00,,---,0.49,VWS V14.01,2013-10-09 03:46:00,
2013-10-08 23:50:00,73.5,71.0,29.94,North,360,5.0,12.0,92,0.00,,---,0.49,VWS V14.01,2013-10-09 03:50:00,
2013-10-08 23:51:00,73.5,71.0,29.93,North,360,4.0,8.0,92,0.00,,---,0.49,VWS V14.01,2013-10-09 03:51:00,
2013-10-08 23:56:00,73.5,71.0,29.93,North,360,5.0,12.0,92,0.00,,---,0.49,VWS V14.01,2013-10-09 03:56:00,